Cahokia, IL

7:25 PM CST on December 09, 2019 (GMT -0600)
Saint Louis Downtown

Weather History for KCPS - October, 2019

Change the Weather History Date:

Friday, October 11, 2019

  Actual Average Record
Temperature  
Mean Temperature 54 °F -  
Max Temperature 69 °F 67 °F 92 °F (1963)
Min Temperature 39 °F 44 °F 28 °F (2000)
Degree Days  
Heating Degree Days 11    
Growing Degree Days 4 (Base 50)    
Moisture  
Dew Point 49 °F    
Average Humidity 85    
Maximum Humidity 96    
Minimum Humidity 59    
Precipitation  
Precipitation 0.48 in - - ()
Sea Level Pressure  
Sea Level Pressure 30.02 in    
Wind  
Wind Speed 7 mph (WNW)    
Max Wind Speed 18 mph    
Max Gust Speed 28 mph    
Visibility 9 miles    
Events Rain , Thunderstorm    
Averages and records for this station are not official NWS values.
T = Trace of Precipitation, MM = Missing Value Source: NWS Daily Summary

Daily Weather History Graph

Daily Weather History Graph

Search for Another Location

Airport or City:

Astronomy

Oct. 11, 2019 Rise Set
Actual Time 7:05 AM CDT 6:28 PM CDT
Civil Twilight 6:39 AM CDT 6:55 PM CDT
Nautical Twilight 6:08 AM CDT 7:25 PM CDT
Astronomical Twilight 5:37 AM CDT 7:56 PM CDT
Moon 5:55 PM CDT (10/11) 4:48 AM CDT (10/11)
Length of Visible Light 12h 16m
Length of Day
11h 22m
Waxing Gibbous, 96% of the Moon is Illuminated
Oct 11
Waxing Gibbous
Oct 13
Full
Oct 21
Last Quarter
Oct 27
New
Nov 4
First Quarter

Hourly Weather History & Observations

Time (CDT) Temp. Windchill Dew Point Humidity Pressure Visibility Wind Dir Wind Speed Gust Speed Precip Events Conditions
12:04 AM 66.9 °F - 64.9 °F 93% 29.90 in 8.0 mi SE 5.8 mph - 0.00 in Rain Light Rain
12:11 AM 68.0 °F - 66.9 °F 96% 29.90 in 10.0 mi Variable 3.5 mph - 0.00 in Thunderstorm Thunderstorm
12:33 AM 68.0 °F - 66.0 °F 93% 29.91 in 10.0 mi Calm Calm - 0.00 in Thunderstorm Mostly Cloudy
12:42 AM 68.0 °F - 66.0 °F 93% 29.90 in 10.0 mi NW 4.6 mph - 0.00 in   Overcast
12:53 AM 68.0 °F - 66.9 °F 96% 29.88 in 10.0 mi Calm Calm - 0.00 in   Overcast
1:45 AM 68.0 °F - 66.0 °F 93% 29.86 in 10.0 mi SSE 5.8 mph - N/A   Scattered Clouds
1:53 AM 69.1 °F - 66.9 °F 93% 29.85 in 10.0 mi SSE 5.8 mph - N/A   Partly Cloudy
2:53 AM 69.1 °F - 66.0 °F 90% 29.87 in 10.0 mi South 5.8 mph - N/A   Mostly Cloudy
3:53 AM 66.9 °F - 64.9 °F 93% 29.88 in 4.0 mi Variable 3.5 mph - 0.12 in Rain Rain
4:27 AM 66.9 °F - 64.9 °F 93% 29.88 in 6.0 mi Calm Calm - 0.11 in Rain Light Rain
4:36 AM 66.9 °F - 64.9 °F 93% 29.88 in 10.0 mi Variable 5.8 mph - 0.11 in Rain Light Rain
4:53 AM 66.9 °F - 64.0 °F 90% 29.88 in 7.0 mi SSW 5.8 mph - 0.15 in Rain Rain
5:51 AM 66.2 °F - 64.4 °F 94% 29.91 in 8.0 mi Variable 4.6 mph - 0.12 in Rain Light Rain
5:53 AM 66.0 °F - 64.0 °F 93% 29.91 in 8.0 mi WSW 6.9 mph - 0.12 in Rain Light Rain
6:03 AM 59.0 °F - 57.0 °F 93% 29.93 in 10.0 mi NW 15.0 mph - 0.01 in Rain Light Rain
6:15 AM 55.9 °F - 54.0 °F 93% 29.95 in 10.0 mi NW 18.4 mph 27.6 mph 0.01 in Rain Light Rain
6:53 AM 52.0 °F - 48.9 °F 89% 29.98 in 10.0 mi WNW 10.4 mph 20.7 mph 0.02 in Rain Light Rain
8:00 AM 50.0 °F - 46.0 °F 86% 30.01 in 10.0 mi WNW 12.7 mph 21.9 mph 0.00 in Rain Light Rain
8:53 AM 46.9 °F - 44.1 °F 90% 30.01 in 10.0 mi WNW 10.4 mph 21.9 mph 0.02 in Rain Light Rain
9:30 AM 46.0 °F 39.6 °F 43.0 °F 89% 30.04 in 4.0 mi WNW 15.0 mph 24.2 mph 0.03 in Rain Rain
9:40 AM 46.0 °F 40.2 °F 43.0 °F 89% 30.04 in 10.0 mi NW 12.7 mph - 0.03 in Rain Light Rain
9:53 AM 46.0 °F 39.3 °F 43.0 °F 89% 30.05 in 10.0 mi NW 16.1 mph 20.7 mph 0.03 in   Overcast
10:53 AM 45.0 °F 39.3 °F 43.0 °F 93% 30.07 in 5.0 mi WNW 11.5 mph 19.6 mph 0.00 in Rain Light Rain
11:24 AM 45.0 °F 40.6 °F 43.0 °F 93% 30.07 in 3.0 mi WNW 8.1 mph 19.6 mph 0.01 in Rain Light Rain
11:43 AM 45.0 °F 37.6 °F 42.1 °F 90% 30.08 in 10.0 mi WNW 17.3 mph 21.9 mph 0.01 in   Overcast
11:53 AM 45.0 °F 38.5 °F 42.1 °F 90% 30.08 in 9.0 mi West 13.8 mph 23.0 mph 0.01 in   Overcast
12:31 PM 45.0 °F 38.9 °F 42.1 °F 90% 30.09 in 7.0 mi NW 12.7 mph 20.7 mph 0.01 in Rain Light Rain
12:53 PM 45.0 °F 38.5 °F 41.0 °F 86% 30.08 in 10.0 mi NW 13.8 mph 21.9 mph 0.01 in   Overcast
1:53 PM 46.0 °F 39.6 °F 39.0 °F 76% 30.08 in 10.0 mi NW 15.0 mph - N/A   Overcast
2:53 PM 48.0 °F - 37.9 °F 68% 30.10 in 10.0 mi WNW 11.5 mph 20.7 mph N/A   Overcast
3:53 PM 46.9 °F - 37.0 °F 68% 30.11 in 10.0 mi WNW 11.5 mph 23.0 mph N/A   Overcast
4:11 PM 48.0 °F - 36.0 °F 63% 30.12 in 10.0 mi WNW 12.7 mph 23.0 mph N/A   Overcast
4:53 PM 48.9 °F - 35.1 °F 59% 30.12 in 10.0 mi NW 17.3 mph - N/A   Mostly Cloudy
5:53 PM 46.9 °F - 33.1 °F 59% 30.14 in 10.0 mi NW 10.4 mph - N/A   Scattered Clouds
6:53 PM 45.0 °F 39.7 °F 33.1 °F 63% 30.16 in 10.0 mi WNW 10.4 mph - N/A   Scattered Clouds
7:53 PM 43.0 °F 40.3 °F 33.1 °F 68% 30.18 in 10.0 mi West 4.6 mph - N/A   Clear
8:53 PM 42.1 °F 40.2 °F 33.1 °F 70% 30.19 in 10.0 mi West 3.5 mph - N/A   Clear
9:53 PM 41.0 °F 39.0 °F 34.0 °F 76% 30.20 in 10.0 mi West 3.5 mph - N/A   Clear
10:53 PM 39.9 °F 37.8 °F 34.0 °F 79% 30.21 in 10.0 mi West 3.5 mph - N/A   Clear
11:53 PM 39.0 °F 35.7 °F 33.1 °F 79% 30.22 in 10.0 mi West 4.6 mph - N/A   Clear